| time (UTC) | temp F | wind direction | speed MPH | gust MPH | rain 1hr in | rain 24hr in | rain mn in | humidity % | barometer mb |
| 20260502170308 | 60 | 333 | 1.0 | 7.0 | 0.00 | 0.00 | 0.00 | 55 | 1021.8 |
| 20260502164331 | 59 | 309 | 1.0 | 4.0 | 0.00 | 0.00 | 0.00 | 61 | 1021.9 |
| 20260502163804 | 59 | 34 | 1.0 | 6.0 | 0.00 | 0.00 | 0.00 | 57 | 1021.9 |
| 20260502163319 | 60 | 132 | 0.0 | 8.0 | 0.00 | 0.00 | 0.00 | 55 | 1022.0 |
| 20260502162814 | 59 | 313 | 3.0 | 8.0 | 0.00 | 0.00 | 0.00 | 53 | 1022.0 |
| 20260502162310 | 59 | 288 | 0.0 | 9.0 | 0.00 | 0.00 | 0.00 | 62 | 1021.9 |
| 20260502161805 | 59 | 49 | 2.0 | 9.0 | 0.00 | 0.00 | 0.00 | 57 | 1021.9 |
| 20260502161320 | 59 | 285 | 1.0 | 5.0 | 0.00 | 0.00 | 0.00 | 57 | 1021.9 |
| 20260502160815 | 59 | 319 | 1.0 | 5.0 | 0.00 | 0.00 | 0.00 | 62 | 1021.9 |
| 20260502160314 | 59 | 320 | 0.0 | 5.0 | 0.00 | 0.00 | 0.00 | 63 | 1021.8 |
| 20260502152312 | 57 | 321 | 1.0 | 4.0 | 0.00 | 0.00 | 0.00 | 70 | 1021.7 |
| 20260502151827 | 56 | 13 | 1.0 | 4.0 | 0.00 | 0.00 | 0.00 | 66 | 1021.8 |
| 20260502151320 | 56 | 318 | 1.0 | 4.0 | 0.00 | 0.00 | 0.00 | 70 | 1021.8 |
| 20260502150835 | 56 | 7 | 0.0 | 4.0 | 0.00 | 0.00 | 0.00 | 70 | 1021.8 |
| 20260502150328 | 55 | 304 | 1.0 | 7.0 | 0.00 | 0.00 | 0.00 | 69 | 1021.8 |
| 20260502130318 | 49 | 323 | 1.0 | 5.0 | 0.00 | 0.00 | 0.00 | 76 | 1021.0 |
| 20260502123312 | 47 | 293 | 0.0 | 0.0 | 0.00 | 0.00 | 0.00 | 81 | 1020.8 |
| 20260502122807 | 45 | 290 | 0.0 | 0.0 | 0.00 | 0.00 | 0.00 | 82 | 1020.8 |
| 20260502122322 | 45 | 237 | 0.0 | 1.0 | 0.00 | 0.00 | 0.00 | 83 | 1020.8 |
| 20260502121817 | 44 | 342 | 0.0 | 1.0 | 0.00 | 0.00 | 0.00 | 83 | 1020.7 |
| 20260502121316 | 44 | 281 | 0.0 | 2.0 | 0.00 | 0.00 | 0.00 | 84 | 1020.6 |
| 20260502120811 | 44 | 342 | 0.0 | 2.0 | 0.00 | 0.00 | 0.00 | 84 | 1020.6 |
| 20260502120306 | 44 | 348 | 0.0 | 1.0 | 0.00 | 0.00 | 0.00 | 85 | 1020.5 |
| 20260502115842 | 43 | 274 | 0.0 | 1.0 | 0.00 | 0.00 | 0.00 | 87 | 1020.5 |
| 20260502115315 | 42 | 295 | 0.0 | 0.0 | 0.00 | 0.00 | 0.00 | 88 | 1020.3 |
| 20260502114831 | 42 | 295 | 0.0 | 0.0 | 0.00 | 0.00 | 0.00 | 88 | 1020.3 |
| 20260502114326 | 42 | 295 | 0.0 | 0.0 | 0.00 | 0.00 | 0.00 | 88 | 1020.2 |
| 20260502113819 | 41 | 295 | 0.0 | 0.0 | 0.00 | 0.00 | 0.00 | 89 | 1020.1 |
| 20260502113314 | 41 | 295 | 0.0 | 0.0 | 0.00 | 0.00 | 0.00 | 89 | 1020.2 |
| 20260502112813 | 41 | 310 | 0.0 | 0.0 | 0.00 | 0.00 | 0.00 | 90 | 1020.2 |
| 20260502112308 | 41 | 310 | 0.0 | 0.0 | 0.00 | 0.00 | 0.00 | 90 | 1020.2 |
| 20260502111822 | 41 | 310 | 0.0 | 0.0 | 0.00 | 0.00 | 0.00 | 90 | 1020.0 |
| 20260502111315 | 41 | 310 | 0.0 | 0.0 | 0.00 | 0.00 | 0.00 | 89 | 1019.9 |
| 20260502110828 | 41 | 310 | 0.0 | 0.0 | 0.00 | 0.00 | 0.00 | 89 | 1019.8 |
| 20260502110340 | 41 | 310 | 0.0 | 1.0 | 0.00 | 0.00 | 0.00 | 89 | 1019.9 |
| 20260502105814 | 41 | 310 | 0.0 | 1.0 | 0.00 | 0.00 | 0.00 | 90 | 1019.9 |
| 20260502105329 | 41 | 314 | 0.0 | 0.0 | 0.00 | 0.00 | 0.00 | 89 | 1019.9 |
| 20260502104821 | 41 | 314 | 0.0 | 0.0 | 0.00 | 0.00 | 0.00 | 89 | 1019.9 |
| 20260502104315 | 41 | 314 | 0.0 | 0.0 | 0.00 | 0.00 | 0.00 | 90 | 1019.8 |
| 20260502103829 | 42 | 314 | 0.0 | 0.0 | 0.00 | 0.00 | 0.00 | 89 | 1019.9 |
| 20260502103321 | 42 | 314 | 0.0 | 0.0 | 0.00 | 0.00 | 0.00 | 89 | 1019.9 |
| 20260502102836 | 42 | 314 | 0.0 | 0.0 | 0.00 | 0.00 | 0.00 | 88 | 1019.8 |
| 20260502102314 | 42 | 314 | 0.0 | 0.0 | 0.00 | 0.00 | 0.00 | 88 | 1019.7 |
| 20260502101809 | 42 | 314 | 0.0 | 0.0 | 0.00 | 0.00 | 0.00 | 89 | 1019.8 |
| 20260502101304 | 42 | 314 | 0.0 | 0.0 | 0.00 | 0.00 | 0.00 | 89 | 1019.6 |
| 20260502100818 | 42 | 314 | 0.0 | 0.0 | 0.00 | 0.00 | 0.00 | 87 | 1019.5 |
| 20260502100312 | 42 | 314 | 0.0 | 0.0 | 0.00 | 0.00 | 0.00 | 88 | 1019.5 |
| 20260502091314 | 42 | 314 | 0.0 | 0.0 | 0.00 | 0.00 | 0.00 | 92 | 1019.2 |
| 20260502090809 | 42 | 314 | 0.0 | 0.0 | 0.00 | 0.00 | 0.00 | 91 | 1019.1 |
| 20260502090327 | 42 | 314 | 0.0 | 0.0 | 0.00 | 0.00 | 0.00 | 91 | 1019.1 |
| 20260502071322 | 45 | 314 | 0.0 | 0.0 | 0.00 | 0.00 | 0.00 | 84 | 1018.8 |
| 20260502070816 | 45 | 314 | 0.0 | 0.0 | 0.00 | 0.00 | 0.00 | 85 | 1018.8 |
| 20260502070310 | 45 | 314 | 0.0 | 0.0 | 0.00 | 0.00 | 0.00 | 86 | 1018.7 |
| 20260502065803 | 45 | 314 | 0.0 | 0.0 | 0.00 | 0.00 | 0.00 | 86 | 1018.8 |
| 20260502065316 | 45 | 314 | 0.0 | 0.0 | 0.00 | 0.00 | 0.00 | 86 | 1018.9 |
| 20260502064808 | 45 | 314 | 0.0 | 0.0 | 0.00 | 0.00 | 0.00 | 86 | 1018.8 |
| 20260502064322 | 45 | 314 | 0.0 | 0.0 | 0.00 | 0.00 | 0.00 | 85 | 1018.9 |
| 20260502063815 | 45 | 314 | 0.0 | 0.0 | 0.00 | 0.00 | 0.00 | 83 | 1018.8 |
| 20260502063309 | 46 | 314 | 0.0 | 0.0 | 0.00 | 0.00 | 0.00 | 84 | 1018.9 |
| 20260502062807 | 46 | 314 | 0.0 | 0.0 | 0.00 | 0.00 | 0.00 | 84 | 1018.8 |
| 20260502062320 | 46 | 314 | 0.0 | 0.0 | 0.00 | 0.00 | 0.00 | 84 | 1018.9 |
| 20260502061815 | 46 | 314 | 0.0 | 0.0 | 0.00 | 0.00 | 0.00 | 84 | 1018.9 |
| 20260502061310 | 46 | 314 | 0.0 | 0.0 | 0.00 | 0.00 | 0.00 | 84 | 1018.9 |
| 20260502060805 | 46 | 314 | 0.0 | 0.0 | 0.00 | 0.00 | 0.00 | 84 | 1018.9 |
| 20260502060320 | 46 | 314 | 0.0 | 0.0 | 0.00 | 0.00 | 0.00 | 85 | 1018.9 |
| 20260502055814 | 46 | 314 | 0.0 | 0.0 | 0.00 | 0.00 | 0.00 | 86 | 1018.9 |
| 20260502055309 | 46 | 314 | 0.0 | 0.0 | 0.00 | 0.00 | 0.00 | 88 | 1019.0 |
| 20260502054822 | 45 | 315 | 0.0 | 0.0 | 0.00 | 0.00 | 0.00 | 89 | 1019.0 |
| 20260502054320 | 45 | 315 | 0.0 | 0.0 | 0.00 | 0.00 | 0.00 | 90 | 1019.0 |
| 20260502053815 | 45 | 315 | 0.0 | 0.0 | 0.00 | 0.00 | 0.00 | 90 | 1019.0 |
| 20260502053308 | 45 | 315 | 0.0 | 0.0 | 0.00 | 0.00 | 0.00 | 90 | 1019.0 |
| 20260502052804 | 45 | 315 | 0.0 | 0.0 | 0.00 | 0.00 | 0.00 | 91 | 1019.0 |
| 20260502052318 | 45 | 315 | 0.0 | 0.0 | 0.00 | 0.00 | 0.00 | 91 | 1019.0 |
| 20260502051813 | 45 | 315 | 0.0 | 0.0 | 0.00 | 0.00 | 0.00 | 92 | 1018.9 |
| 20260502051307 | 45 | 315 | 0.0 | 0.0 | 0.00 | 0.00 | 0.00 | 91 | 1018.8 |
| 20260502050820 | 45 | 315 | 0.0 | 0.0 | 0.00 | 0.00 | 0.00 | 91 | 1018.8 |
| 20260502050314 | 45 | 315 | 0.0 | 0.0 | 0.00 | 0.00 | 0.00 | 90 | 1018.7 |
| 20260502045809 | 46 | 315 | 0.0 | 0.0 | 0.00 | 0.00 | 0.00 | 90 | 1018.8 |
| 20260502045328 | 46 | 315 | 0.0 | 0.0 | 0.00 | 0.00 | 0.00 | 90 | 1018.7 |
| 20260502044820 | 47 | 315 | 0.0 | 0.0 | 0.00 | 0.00 | 0.00 | 90 | 1018.8 |
| 20260502044315 | 47 | 315 | 0.0 | 0.0 | 0.00 | 0.00 | 0.00 | 90 | 1018.8 |
| 20260502043810 | 47 | 315 | 0.0 | 0.0 | 0.00 | 0.00 | 0.00 | 89 | 1018.8 |
| 20260502043304 | 47 | 315 | 0.0 | 0.0 | 0.00 | 0.00 | 0.00 | 89 | 1018.8 |
| 20260502042818 | 47 | 315 | 0.0 | 0.0 | 0.00 | 0.00 | 0.00 | 89 | 1018.7 |
| 20260502042312 | 47 | 315 | 0.0 | 0.0 | 0.00 | 0.00 | 0.00 | 89 | 1018.8 |
| 20260502041803 | 47 | 315 | 0.0 | 0.0 | 0.00 | 0.00 | 0.00 | 89 | 1018.8 |
| 20260502041318 | 47 | 315 | 0.0 | 0.0 | 0.00 | 0.00 | 0.00 | 89 | 1018.8 |
| 20260502040832 | 47 | 315 | 0.0 | 0.0 | 0.00 | 0.00 | 0.00 | 88 | 1018.8 |
| 20260502040303 | 47 | 315 | 0.0 | 0.0 | 0.00 | 0.00 | 0.00 | 87 | 1018.9 |
| 20260502035822 | 47 | 315 | 0.0 | 0.0 | 0.00 | 0.00 | 0.00 | 87 | 1019.0 |
| 20260502035317 | 47 | 315 | 0.0 | 0.0 | 0.00 | 0.00 | 0.00 | 86 | 1018.9 |
| 20260502034811 | 47 | 315 | 0.0 | 0.0 | 0.00 | 0.00 | 0.00 | 85 | 1019.0 |
| 20260502034325 | 47 | 315 | 0.0 | 0.0 | 0.00 | 0.00 | 0.00 | 84 | 1019.0 |
| 20260502033819 | 48 | 315 | 0.0 | 0.0 | 0.00 | 0.00 | 0.00 | 84 | 1019.0 |
| 20260502033312 | 48 | 315 | 0.0 | 0.0 | 0.00 | 0.00 | 0.00 | 83 | 1019.1 |
| 20260502032807 | 49 | 315 | 0.0 | 0.0 | 0.00 | 0.00 | 0.00 | 83 | 1019.0 |
| 20260502032320 | 48 | 315 | 0.0 | 0.0 | 0.00 | 0.00 | 0.00 | 83 | 1019.0 |
| 20260502031814 | 48 | 315 | 0.0 | 0.0 | 0.00 | 0.00 | 0.00 | 80 | 1018.9 |
| 20260502031328 | 48 | 315 | 0.0 | 0.0 | 0.00 | 0.00 | 0.00 | 81 | 1018.9 |
| 20260502030806 | 48 | 315 | 0.0 | 0.0 | 0.00 | 0.00 | 0.00 | 78 | 1018.9 |
| 20260502030341 | 48 | 315 | 0.0 | 0.0 | 0.00 | 0.00 | 0.00 | 78 | 1018.9 |
| 20260502025833 | 49 | 315 | 0.0 | 0.0 | 0.00 | 0.00 | 0.00 | 78 | 1018.9 |
| 20260502025308 | 49 | 315 | 0.0 | 0.0 | 0.00 | 0.00 | 0.00 | 77 | 1018.9 |
| 20260502024803 | 49 | 314 | 0.0 | 0.0 | 0.00 | 0.00 | 0.00 | 79 | 1018.8 |
| 20260502024318 | 48 | 315 | 0.0 | 0.0 | 0.00 | 0.00 | 0.00 | 77 | 1018.8 |
| 20260502023811 | 48 | 315 | 0.0 | 0.0 | 0.00 | 0.00 | 0.00 | 76 | 1018.8 |
| 20260502023305 | 49 | 315 | 0.0 | 0.0 | 0.00 | 0.00 | 0.00 | 77 | 1018.8 |
| 20260502022817 | 49 | 314 | 0.0 | 0.0 | 0.00 | 0.00 | 0.00 | 76 | 1018.7 |
| 20260502022316 | 49 | 315 | 0.0 | 0.0 | 0.00 | 0.00 | 0.00 | 75 | 1018.6 |
| 20260502021811 | 49 | 315 | 0.0 | 0.0 | 0.00 | 0.00 | 0.00 | 75 | 1018.6 |
| 20260502021306 | 49 | 315 | 0.0 | 0.0 | 0.00 | 0.00 | 0.00 | 75 | 1018.5 |
| 20260502020818 | 49 | 315 | 0.0 | 0.0 | 0.00 | 0.00 | 0.00 | 73 | 1018.5 |
| 20260502020312 | 50 | 315 | 0.0 | 0.0 | 0.00 | 0.00 | 0.00 | 71 | 1018.4 |
| 20260502015808 | 50 | 315 | 0.0 | 0.0 | 0.00 | 0.00 | 0.00 | 70 | 1018.4 |
| 20260502015322 | 50 | 315 | 0.0 | 0.0 | 0.00 | 0.00 | 0.00 | 72 | 1018.3 |
| 20260502014818 | 50 | 315 | 0.0 | 0.0 | 0.00 | 0.00 | 0.00 | 70 | 1018.3 |
| 20260502014316 | 51 | 315 | 0.0 | 0.0 | 0.00 | 0.00 | 0.00 | 69 | 1018.2 |
| 20260502013830 | 51 | 315 | 0.0 | 0.0 | 0.00 | 0.00 | 0.00 | 67 | 1018.1 |
| 20260502013304 | 51 | 315 | 0.0 | 0.0 | 0.00 | 0.00 | 0.00 | 66 | 1018.0 |
| 20260502012818 | 52 | 314 | 0.0 | 0.0 | 0.00 | 0.00 | 0.00 | 64 | 1018.0 |
| 20260502012312 | 52 | 314 | 0.0 | 0.0 | 0.00 | 0.00 | 0.00 | 65 | 1017.9 |
| 20260502011827 | 53 | 315 | 0.0 | 0.0 | 0.00 | 0.00 | 0.00 | 61 | 1017.8 |
| 20260502011319 | 53 | 315 | 0.0 | 0.0 | 0.00 | 0.00 | 0.00 | 61 | 1017.7 |
| 20260502010812 | 54 | 315 | 0.0 | 0.0 | 0.00 | 0.00 | 0.00 | 60 | 1017.6 |
| 20260502010327 | 54 | 315 | 0.0 | 0.0 | 0.00 | 0.00 | 0.00 | 62 | 1017.6 |
| 20260502005821 | 55 | 314 | 0.0 | 0.0 | 0.00 | 0.00 | 0.00 | 61 | 1017.5 |
| 20260502005314 | 55 | 315 | 0.0 | 0.0 | 0.00 | 0.00 | 0.00 | 58 | 1017.5 |
| 20260502004829 | 56 | 315 | 0.0 | 0.0 | 0.00 | 0.00 | 0.00 | 56 | 1017.3 |
| 20260502004307 | 57 | 314 | 0.0 | 0.0 | 0.00 | 0.00 | 0.00 | 55 | 1017.3 |
| 20260502003820 | 57 | 314 | 0.0 | 0.0 | 0.00 | 0.00 | 0.00 | 56 | 1017.3 |
| 20260502003335 | 58 | 315 | 0.0 | 0.0 | 0.00 | 0.00 | 0.00 | 55 | 1017.2 |
| 20260502002809 | 59 | 315 | 0.0 | 0.0 | 0.00 | 0.00 | 0.00 | 52 | 1017.1 |
| 20260502002305 | 60 | 315 | 0.0 | 0.0 | 0.00 | 0.00 | 0.00 | 51 | 1017.1 |
| 20260502001838 | 60 | 315 | 0.0 | 0.0 | 0.00 | 0.00 | 0.00 | 50 | 1017.0 |
| 20260502001311 | 61 | 328 | 0.0 | 0.0 | 0.00 | 0.00 | 0.00 | 48 | 1016.9 |
| 20260502000805 | 61 | 323 | 0.0 | 0.0 | 0.00 | 0.00 | 0.00 | 46 | 1017.0 |
| 20260502000319 | 62 | 318 | 0.0 | 0.0 | 0.00 | 0.00 | 0.00 | 44 | 1017.0 |
| 20260501235811 | 62 | 300 | 0.0 | 4.0 | 0.00 | 0.00 | 0.00 | 45 | 1017.0 |
| 20260501235309 | 63 | 13 | 0.0 | 4.0 | 0.00 | 0.00 | 0.00 | 43 | 1017.1 |
| 20260501234805 | 62 | 311 | 0.0 | 6.0 | 0.00 | 0.00 | 0.00 | 42 | 1017.1 |
| 20260501234319 | 62 | 324 | 2.0 | 6.0 | 0.00 | 0.00 | 0.00 | 41 | 1017.1 |
| 20260501233834 | 62 | 329 | 0.0 | 3.0 | 0.00 | 0.00 | 0.00 | 42 | 1017.1 |
| 20260501233308 | 63 | 308 | 0.0 | 3.0 | 0.00 | 0.00 | 0.00 | 42 | 1017.0 |
| 20260501232803 | 63 | 321 | 0.0 | 2.0 | 0.00 | 0.00 | 0.00 | 41 | 1017.0 |
| 20260501232339 | 63 | 295 | 0.0 | 2.0 | 0.00 | 0.00 | 0.00 | 42 | 1016.9 |
| 20260501231813 | 63 | 285 | 0.0 | 1.0 | 0.00 | 0.00 | 0.00 | 45 | 1016.9 |
| 20260501231327 | 63 | 344 | 0.0 | 3.0 | 0.00 | 0.00 | 0.00 | 42 | 1016.9 |
| 20260501230804 | 63 | 317 | 1.0 | 3.0 | 0.00 | 0.00 | 0.00 | 40 | 1016.9 |
| 20260501230319 | 63 | 319 | 1.0 | 5.0 | 0.00 | 0.00 | 0.00 | 40 | 1016.9 |
| 20260501225814 | 63 | 337 | 2.0 | 9.0 | 0.00 | 0.00 | 0.00 | 42 | 1016.9 |
| 20260501225307 | 64 | 309 | 1.0 | 9.0 | 0.00 | 0.00 | 0.00 | 39 | 1016.7 |
| 20260501224822 | 64 | 346 | 0.0 | 4.0 | 0.00 | 0.00 | 0.00 | 40 | 1016.8 |
| 20260501224317 | 64 | 321 | 1.0 | 4.0 | 0.00 | 0.00 | 0.00 | 40 | 1016.7 |
| 20260501223812 | 64 | 329 | 0.0 | 4.0 | 0.00 | 0.00 | 0.00 | 37 | 1016.9 |
| 20260501223311 | 64 | 281 | 0.0 | 6.0 | 0.00 | 0.00 | 0.00 | 41 | 1016.8 |
| 20260501222806 | 64 | 337 | 1.0 | 6.0 | 0.00 | 0.00 | 0.00 | 43 | 1016.9 |
| 20260501222341 | 64 | 292 | 0.0 | 3.0 | 0.00 | 0.00 | 0.00 | 38 | 1016.9 |
| 20260501221814 | 64 | 330 | 0.0 | 8.0 | 0.00 | 0.00 | 0.00 | 40 | 1016.9 |
| 20260501221309 | 64 | 44 | 1.0 | 8.0 | 0.00 | 0.00 | 0.00 | 38 | 1017.0 |
| 20260501220804 | 65 | 351 | 3.0 | 7.0 | 0.00 | 0.00 | 0.00 | 35 | 1017.1 |
| 20260501220318 | 65 | 332 | 2.0 | 6.0 | 0.00 | 0.00 | 0.00 | 39 | 1017.1 |
| 20260501215833 | 65 | 321 | 1.0 | 5.0 | 0.00 | 0.00 | 0.00 | 40 | 1017.2 |
| 20260501215306 | 65 | 327 | 0.0 | 8.0 | 0.00 | 0.00 | 0.00 | 40 | 1017.2 |
| 20260501214804 | 64 | 322 | 2.0 | 8.0 | 0.00 | 0.00 | 0.00 | 39 | 1017.2 |
| 20260501214318 | 64 | 36 | 0.0 | 6.0 | 0.00 | 0.00 | 0.00 | 38 | 1017.2 |
| 20260501213813 | 64 | 316 | 1.0 | 6.0 | 0.00 | 0.00 | 0.00 | 37 | 1017.2 |
| 20260501213327 | 65 | 6 | 1.0 | 6.0 | 0.00 | 0.00 | 0.00 | 42 | 1017.3 |
| 20260501212821 | 65 | 335 | 0.0 | 8.0 | 0.00 | 0.00 | 0.00 | 40 | 1017.4 |
| 20260501212316 | 65 | 301 | 2.0 | 9.0 | 0.00 | 0.00 | 0.00 | 38 | 1017.4 |
| 20260501211811 | 65 | 27 | 5.0 | 9.0 | 0.00 | 0.00 | 0.00 | 38 | 1017.6 |
| 20260501211305 | 65 | 329 | 1.0 | 7.0 | 0.00 | 0.00 | 0.00 | 38 | 1017.5 |
| 20260501210803 | 65 | 148 | 2.0 | 7.0 | 0.00 | 0.00 | 0.00 | 41 | 1017.7 |
| 20260501210319 | 65 | 314 | 3.0 | 7.0 | 0.00 | 0.00 | 0.00 | 39 | 1017.9 |
| 20260501205813 | 65 | 312 | 3.0 | 6.0 | 0.00 | 0.00 | 0.00 | 38 | 1018.1 |
| 20260501205309 | 65 | 315 | 2.0 | 5.0 | 0.00 | 0.00 | 0.00 | 40 | 1018.1 |
| 20260501204803 | 65 | 347 | 0.0 | 9.0 | 0.00 | 0.00 | 0.00 | 37 | 1018.1 |
| 20260501204338 | 65 | 38 | 1.0 | 9.0 | 0.00 | 0.00 | 0.00 | 39 | 1018.3 |
| 20260501203812 | 65 | 349 | 1.0 | 5.0 | 0.00 | 0.00 | 0.00 | 40 | 1018.4 |
| 20260501203322 | 65 | 305 | 0.0 | 6.0 | 0.00 | 0.00 | 0.00 | 36 | 1018.5 |
| 20260501202816 | 66 | 359 | 2.0 | 6.0 | 0.00 | 0.00 | 0.00 | 40 | 1018.6 |
| 20260501202315 | 65 | 233 | 1.0 | 5.0 | 0.00 | 0.00 | 0.00 | 35 | 1018.6 |
| 20260501201810 | 66 | 273 | 0.0 | 2.0 | 0.00 | 0.00 | 0.00 | 36 | 1018.7 |
| 20260501201305 | 65 | 274 | 0.0 | 4.0 | 0.00 | 0.00 | 0.00 | 41 | 1018.8 |
| 20260501200820 | 65 | 335 | 1.0 | 7.0 | 0.00 | 0.00 | 0.00 | 38 | 1018.9 |
| 20260501200315 | 65 | 333 | 0.0 | 7.0 | 0.00 | 0.00 | 0.00 | 39 | 1019.1 |
| 20260501195810 | 66 | 329 | 0.0 | 3.0 | 0.00 | 0.00 | 0.00 | 40 | 1019.2 |
| 20260501195306 | 65 | 78 | 0.0 | 5.0 | 0.00 | 0.00 | 0.00 | 38 | 1019.3 |
| 20260501194804 | 65 | 285 | 0.0 | 5.0 | 0.00 | 0.00 | 0.00 | 36 | 1019.3 |
| 20260501194318 | 65 | 356 | 0.0 | 4.0 | 0.00 | 0.00 | 0.00 | 44 | 1019.5 |
| 20260501193812 | 65 | 309 | 0.0 | 5.0 | 0.00 | 0.00 | 0.00 | 40 | 1019.5 |
| 20260501193304 | 65 | 307 | 2.0 | 5.0 | 0.00 | 0.00 | 0.00 | 41 | 1019.5 |
| 20260501192817 | 64 | 72 | 0.0 | 6.0 | 0.00 | 0.00 | 0.00 | 38 | 1019.6 |
| 20260501192312 | 64 | 314 | 1.0 | 6.0 | 0.00 | 0.00 | 0.00 | 41 | 1019.7 |
| 20260501191807 | 64 | 300 | 0.0 | 6.0 | 0.00 | 0.00 | 0.00 | 46 | 1019.7 |
| 20260501191321 | 64 | 15 | 2.0 | 8.0 | 0.00 | 0.00 | 0.00 | 39 | 1019.7 |
| 20260501190836 | 64 | 276 | 2.0 | 8.0 | 0.00 | 0.00 | 0.00 | 39 | 1019.7 |
| 20260501190330 | 64 | 268 | 1.0 | 5.0 | 0.00 | 0.00 | 0.00 | 37 | 1019.7 |
| 20260501185808 | 64 | 259 | 0.0 | 4.0 | 0.00 | 0.00 | 0.00 | 37 | 1019.7 |
| 20260501185321 | 64 | 274 | 1.0 | 4.0 | 0.00 | 0.00 | 0.00 | 39 | 1019.6 |
| 20260501184816 | 65 | 214 | 0.0 | 7.0 | 0.00 | 0.00 | 0.00 | 43 | 1019.6 |
| 20260501184311 | 64 | 356 | 2.0 | 7.0 | 0.00 | 0.00 | 0.00 | 47 | 1019.8 |
| 20260501183826 | 64 | 326 | 1.0 | 4.0 | 0.00 | 0.00 | 0.00 | 41 | 1019.8 |
| 20260501183319 | 63 | 73 | 0.0 | 4.0 | 0.00 | 0.00 | 0.00 | 41 | 1019.9 |
| 20260501182813 | 63 | 30 | 0.0 | 4.0 | 0.00 | 0.00 | 0.00 | 39 | 1019.9 |
| 20260501182308 | 63 | 326 | 1.0 | 4.0 | 0.00 | 0.00 | 0.00 | 38 | 1020.0 |
| 20260501181803 | 63 | 301 | 0.0 | 4.0 | 0.00 | 0.00 | 0.00 | 37 | 1019.9 |
| 20260501181338 | 64 | 321 | 1.0 | 3.0 | 0.00 | 0.00 | 0.00 | 35 | 1020.1 |
| 20260501180817 | 63 | 276 | 0.0 | 5.0 | 0.00 | 0.00 | 0.00 | 38 | 1020.1 |
| 20260501180331 | 63 | 352 | 0.0 | 8.0 | 0.00 | 0.00 | 0.00 | 37 | 1020.1 |
| 20260501175804 | 63 | 332 | 3.0 | 8.0 | 0.00 | 0.00 | 0.00 | 44 | 1020.1 |